Wind_Speed
21 26 31 32 31 31 32 32 32 32 32 31 30 30 30 29 29 28 27 26 25 23 22 21 20 19 19 17 15 14 15 16 15 14 12 11 11 9 8 14 18 18 16 15 16 15 15 17 22 24 23 23 24 22 21 22 23 24 23 21 21 22 22 22 21 22 23 23 22 22 22 21 20 21 21 21 20 19 20 21 23 25 25 24 22 21 20
18 18 23 28 31 32 33 33 33 33 33 32 31 30 29 29 29 28 27 26 24 23 23 22 22 22 21 19 17 15 15 15 14 13 12 11 10 8 7 9 13 15 16 15 15 15 13 13 16 21 22 22 22 21 20 21 23 24 23 23 23 23 23 22 20 20 22 24 24 24 23 21 20 21 22 22 21 21 23 23 23 25 27 26 22 21 20
19 17 18 21 25 29 34 37 35 33 33 32 31 30 30 29 29 29 28 26 25 23 23 23 23 23 22 21 20 17 15 15 13 12 11 10 9 9 9 9 10 12 14 14 13 12 12 12 13 16 19 21 22 22 22 22 23 23 24 24 24 24 24 22 21 21 23 25 25 24 23 23 22 22 24 24 25 26 28 25 21 21 23 25 24 22 21
21 19 18 20 20 21 29 36 36 33 32 32 31 31 30 30 30 30 29 28 26 24 23 22 22 22 23 23 22 19 18 17 15 13 12 11 10 10 10 10 11 13 14 14 13 12 13 14 14 14 17 19 21 22 22 21 21 22 23 23 23 24 25 24 23 23 24 25 25 25 26 26 25 25 25 25 25 25 24 23 21 19 19 22 24 24 22
21 20 19 19 19 19 22 29 33 32 31 31 32 32 32 31 31 31 30 29 28 25 22 21 21 21 22 22 22 20 20 18 16 14 14 14 14 13 12 11 12 14 16 14 14 14 15 17 17 16 17 19 21 23 24 22 21 22 23 23 24 25 25 25 25 24 25 26 26 26 27 26 25 26 25 24 23 22 21 21 21 21 21 23 25 25 23
22 21 19 18 19 20 21 24 28 30 30 30 32 33 33 33 33 33 32 30 28 26 23 20 20 21 21 21 21 20 19 18 17 16 15 15 15 15 14 13 13 15 16 16 16 17 18 19 19 19 20 21 23 25 24 22 22 23 23 24 25 25 25 24 24 24 25 25 26 25 24 23 23 24 23 22 21 21 21 20 20 22 22 24 25 26 24
24 23 21 17 15 14 16 19 22 24 27 29 30 32 33 34 34 34 33 31 29 27 24 22 21 21 21 21 22 21 20 20 19 19 18 17 17 16 16 16 16 16 17 17 18 19 20 21 21 21 23 24 24 24 23 22 22 23 23 24 25 24 24 24 23 23 24 24 24 24 24 23 23 22 22 22 22 21 21 20 21 22 23 23 25 26 25
22 24 23 20 15 10 10 12 13 15 18 23 27 29 31 33 35 34 33 31 29 27 26 24 23 23 23 23 23 23 22 22 22 22 22 21 20 20 20 20 19 19 19 19 19 20 20 22 22 22 23 23 23 23 23 23 23 23 24 25 25 25 25 25 26 26 25 25 26 26 26 26 25 24 23 23 24 24 24 23 23 24 24 24 26 27 27
19 21 23 22 20 16 13 11 11 11 12 14 19 23 25 27 31 32 32 31 29 28 27 25 24 25 25 25 25 24 23 22 21 22 24 23 23 23 24 24 22 22 22 22 22 23 24 24 24 23 22 22 22 22 23 24 24 25 26 27 26 27 27 28 28 28 28 28 28 28 27 27 27 27 26 26 27 27 27 26 26 26 27 28 28 29 30
20 19 19 19 20 20 18 17 16 16 14 12 13 15 18 21 25 28 29 30 30 30 29 27 26 25 25 26 26 25 24 23 21 21 23 24 24 25 26 26 24 23 23 24 25 27 28 27 25 25 24 23 22 23 24 24 25 26 27 27 27 28 28 29 29 29 29 29 29 29 28 29 29 29 30 30 30 30 29 28 28 28 30 31 32 32 33
25 22 20 19 19 19 19 19 19 19 18 15 12 11 13 17 20 22 24 26 28 29 30 30 28 25 24 25 26 27 25 23 22 22 23 24 24 26 27 27 26 26 25 26 27 29 30 29 27 27 27 26 25 26 25 25 25 26 26 26 27 28 28 28 29 30 30 30 30 30 30 30 30 31 31 31 31 31 31 31 31 31 32 34 34 35 35
26 26 25 24 22 20 19 18 17 18 18 17 14 13 12 14 17 19 22 24 25 26 28 30 30 27 24 23 23 25 25 24 22 22 24 25 25 25 27 28 29 29 28 29 30 33 35 33 31 31 32 30 29 29 28 27 27 27 27 27 27 28 28 28 29 30 30 30 30 30 31 31 30 30 30 31 31 32 32 33 34 34 35 36 37 38 38
20 22 24 25 25 22 20 17 15 16 17 17 16 14 13 15 18 20 22 22 22 23 24 26 29 30 31 31 29 28 27 25 23 22 24 27 28 28 29 30 31 30 29 31 35 38 39 37 35 35 35 34 33 32 30 29 28 29 29 28 29 29 29 29 29 30 30 31 31 31 32 31 30 29 30 31 32 33 34 35 35 36 37 38 39 40 40
14 16 18 20 21 21 18 16 14 14 16 17 16 15 15 17 19 21 22 22 20 20 21 23 24 26 28 31 34 34 33 31 29 27 28 29 29 30 32 33 33 32 31 32 35 39 40 39 38 38 37 36 35 33 31 30 30 31 31 30 30 31 31 31 30 30 30 31 32 31 31 31 31 32 33 34 35 36 36 37 38 39 40 40 41 42 42
13 13 14 15 16 17 16 15 14 14 16 16 16 17 18 19 19 20 21 21 21 20 19 20 21 21 21 21 24 29 32 33 32 31 30 28 28 30 33 35 35 35 33 33 35 38 39 39 39 39 38 37 36 35 33 32 32 33 33 31 31 31 33 34 34 32 31 30 30 30 31 32 34 36 37 38 39 39 39 40 40 41 41 42 43 43 44
11 13 13 13 13 14 14 14 13 13 14 15 16 18 20 20 19 19 19 17 18 19 19 18 19 21 21 21 21 23 26 28 28 29 28 27 28 31 33 33 32 31 30 30 32 35 36 36 36 36 36 36 36 36 35 35 35 35 35 33 32 32 32 34 36 37 36 35 34 34 36 38 40 41 42 42 42 43 43 43 44 45 46 47 48 48 49
10 11 12 13 13 14 14 14 13 13 14 16 16 17 19 20 20 20 20 18 17 20 20 19 18 19 21 23 24 25 27 27 28 29 29 30 32 34 32 30 28 27 25 25 27 29 31 31 31 30 31 32 34 35 36 36 37 38 37 35 34 33 33 34 36 39 40 41 41 41 42 43 44 45 46 47 47 47 48 49 49 50 51 52 52 53 54
10 11 11 12 13 14 15 15 15 16 16 17 17 18 19 19 19 20 20 20 20 21 22 22 21 20 19 21 24 27 28 29 30 31 32 32 34 35 34 32 31 30 29 29 29 28 29 29 29 29 29 30 31 32 34 35 36 36 36 35 35 36 37 38 40 41 43 44 44 45 45 46 47 48 48 49 50 50 51 51 51 52 52 53 54 54 55
9 10 11 12 13 14 15 16 16 17 18 18 19 19 19 20 20 20 21 22 23 22 22 23 23 23 23 23 23 25 27 29 31 32 32 33 33 35 36 36 36 35 34 34 33 31 30 30 30 31 32 33 34 34 35 36 36 37 38 39 40 40 41 41 42 44 45 45 46 46 47 47 48 48 49 49 49 50 50 50 51 51 51 52 52 53 53
8 9 9 11 12 13 14 16 17 18 19 20 20 21 21 22 22 22 23 24 25 26 26 25 24 25 26 27 27 27 28 29 30 31 32 32 32 33 34 35 35 35 35 34 33 32 30 29 29 30 31 32 33 34 35 36 37 39 40 40 41 40 40 41 41 42 43 44 44 45 45 45 45 46 46 46 47 47 47 48 49 49 50 51 51 52 53
7 8 9 10 11 12 14 15 16 18 19 20 21 22 23 24 25 25 25 25 26 27 29 30 29 29 30 31 32 32 32 32 32 32 33 33 33 34 34 34 34 34 34 33 32 31 31 30 30 30 30 31 31 31 32 33 34 35 36 37 38 38 39 40 40 41 43 43 44 44 44 45 45 46 46 46 46 47 47 48 49 51 52 53 54 55 57
6 7 8 9 10 11 12 14 15 17 18 19 20 22 23 24 25 26 27 28 28 28 28 30 31 31 32 33 34 35 36 36 36 36 37 37 36 36 36 36 36 37 36 36 35 34 33 33 33 33 33 33 34 34 34 35 36 37 38 38 39 40 41 41 42 43 44 44 45 45 45 46 46 47 47 48 49 50 50 51 53 54 55 56 57 58 59
6 7 8 9 10 10 11 12 14 15 17 18 19 20 22 24 25 26 27 28 29 30 30 30 31 31 32 33 34 35 37 38 40 40 41 41 40 40 39 39 39 39 39 39 39 39 38 37 36 36 36 36 36 37 38 38 39 40 41 41 42 42 43 44 44 45 45 45 46 46 47 48 49 49 50 51 52 52 53 54 55 56 57 58 59 60 61
9 10 11 12 13 14 14 15 16 17 17 19 19 20 21 22 24 25 27 28 29 30 31 32 33 33 34 34 35 35 36 38 39 41 43 43 44 43 43 43 43 42 42 41 41 40 40 40 39 39 39 39 39 39 40 41 41 42 42 43 44 44 45 45 46 46 47 47 48 48 49 50 51 52 53 53 53 54 54 55 56 57 58 59 60 61 62
12 14 15 16 18 19 20 20 21 21 22 23 24 24 25 25 25 26 26 27 28 30 31 32 33 34 36 36 37 38 39 39 40 41 42 44 44 45 45 45 45 45 44 43 42 42 41 41 41 41 41 41 41 41 41 42 42 43 43 44 45 45 46 46 47 47 48 48 49 50 50 51 52 52 53 53 54 54 54 55 55 56 57 57 58 58 59
16 17 18 19 20 21 22 23 24 25 25 26 27 28 29 30 30 30 30 30 30 30 31 32 32 34 35 36 38 39 40 41 42 42 43 44 45 45 45 45 45 45 45 44 43 43 43 42 42 42 42 42 43 44 44 44 44 45 45 46 46 47 47 47 48 48 49 49 49 50 50 50 50 50 50 50 51 51 51 51 52 52 52 52 51 51 51
21 21 22 22 22 23 24 25 26 27 27 28 29 31 32 33 34 34 35 35 35 35 34 34 34 34 35 35 36 38 39 40 40 41 42 43 43 44 45 46 46 46 46 46 45 45 45 45 45 45 44 43 43 43 43 43 43 43 44 44 44 45 45 46 46 46 46 46 46 46 46 46 46 46 46 46 46 46 47 47 47 47 47 46 45 45 45
23 24 24 25 26 27 28 29 29 30 31 32 33 34 35 35 36 36 37 38 38 38 38 38 38 37 37 36 36 37 37 38 39 40 40 41 42 43 44 45 46 47 47 47 47 47 47 46 45 44 43 41 40 40 39 38 38 38 38 38 39 40 40 40 41 41 41 41 41 41 41 41 41 41 42 42 42 42 42 42 41 41 41 41 41 41 41
24 25 26 27 29 30 31 33 34 35 36 36 36 35 35 34 33 33 34 35 37 39 40 40 40 40 39 39 38 38 38 38 38 38 39 39 40 41 41 43 43 44 44 44 44 44 43 42 42 41 40 39 39 38 37 36 36 36 36 36 36 36 36 37 37 37 37 37 37 37 37 37 38 38 38 38 38 38 38 38 38 38 38 38 38 38 38
24 25 27 28 30 32 35 37 38 38 37 35 33 31 30 29 28 28 28 29 32 35 38 39 40 40 40 40 39 39 39 39 38 38 38 38 38 39 39 40 40 41 41 41 40 40 39 39 39 38 38 37 37 36 36 35 35 35 35 35 35 35 35 35 35 35 35 35 35 35 35 35 35 35 35 35 35 35 35 35 35 35 35 35 34 34 34
24 25 27 29 32 35 37 37 36 33 31 29 27 25 25 25 25 25 26 26 27 30 33 36 37 38 38 39 39 39 39 39 39 38 38 37 37 37 37 37 38 38 38 38 38 37 37 37 37 36 36 35 35 34 34 34 34 34 34 34 33 34 34 34 34 34 34 33 33 33 34 34 33 33 33 33 33 33 33 33 33 32 31 31 30 29 29
24 26 28 32 35 36 34 31 28 26 25 23 22 22 22 22 22 22 23 24 25 27 30 32 34 35 35 36 37 37 37 37 37 37 36 36 36 35 35 35 35 36 36 36 36 36 36 35 35 34 34 34 33 33 33 33 33 33 33 32 32 32 32 32 33 33 32 32 31 31 32 32 31 31 31 31 30 30 30 29 28 27 27 27 26 26 26
25 28 31 34 36 33 29 25 23 22 22 21 20 19 19 19 20 20 19 20 21 23 26 28 29 31 32 33 33 34 34 34 35 34 34 34 33 33 33 33 33 34 34 34 34 34 34 34 34 33 33 32 32 32 32 32 32 32 32 31 31 31 31 31 31 31 30 30 29 29 29 29 28 28 28 27 27 26 25 24 24 24 24 24 23 23 23
26 29 32 35 34 29 25 23 22 21 20 18 17 17 16 16 16 16 16 16 17 19 21 23 25 26 28 29 30 31 31 32 32 32 32 32 31 31 31 31 31 32 32 32 32 33 33 33 33 32 32 32 32 31 31 31 31 31 31 30 30 30 30 29 29 29 28 28 27 27 26 25 25 24 24 23 23 22 22 21 21 21 21 21 21 21 22
26 29 32 34 32 27 23 22 22 21 19 17 16 15 15 15 14 14 15 16 16 16 17 19 20 22 23 25 26 27 29 29 29 29 29 30 30 30 30 30 30 30 30 30 31 31 31 31 31 31 31 31 31 31 31 30 30 30 30 29 29 29 28 28 28 27 27 26 25 24 23 23 22 21 21 20 20 20 19 19 20 20 20 21 21 22 23
26 29 32 33 30 25 23 23 22 21 19 17 16 15 15 14 13 14 15 16 16 16 16 17 18 19 20 21 22 23 25 26 27 27 27 27 27 28 28 28 28 28 28 29 29 29 29 30 30 30 30 29 29 29 29 29 29 29 28 28 28 28 27 27 26 26 25 24 23 22 22 21 21 20 19 19 18 18 19 19 20 20 21 22 22 23 23
27 29 31 32 29 26 24 23 23 21 19 17 16 15 14 13 13 14 15 15 15 15 15 16 17 17 18 19 19 20 21 23 24 25 25 25 25 26 26 26 26 26 27 27 27 27 27 27 28 28 27 27 27 27 27 27 27 27 27 27 27 27 26 25 25 24 23 22 21 21 20 20 20 19 19 18 19 19 20 20 20 21 21 21 21 21 21
26 29 30 31 29 26 24 23 23 21 19 17 16 14 14 13 13 13 13 14 14 14 15 15 15 16 16 17 17 18 19 21 22 23 24 24 24 25 25 25 25 25 25 25 26 26 26 26 26 26 26 26 26 26 26 26 26 26 26 26 26 25 25 24 23 21 20 20 19 19 19 19 18 18 18 18 19 19 20 20 20 20 19 19 19 19 20
26 28 29 29 28 26 24 23 23 21 19 17 16 15 13 13 13 13 14 14 14 15 15 15 14 14 15 15 16 16 17 19 20 21 22 23 24 24 24 24 24 24 24 25 25 25 25 25 26 26 26 26 26 26 26 26 25 25 24 24 24 24 23 22 21 19 18 18 18 18 18 18 18 18 18 18 19 19 19 19 18 18 18 18 19 20 21
25 26 28 28 27 25 24 23 23 21 19 17 16 16 15 14 14 14 15 15 16 16 15 14 13 13 14 14 15 15 16 16 18 19 20 21 21 22 22 22 22 22 23 23 23 23 23 24 24 24 24 24 25 25 25 24 24 23 23 23 23 23 22 20 19 18 18 18 18 18 18 18 18 18 18 18 18 19 18 18 18 18 19 20 21 22 23
24 25 26 27 27 25 24 23 22 21 19 17 16 16 16 15 14 14 15 16 16 16 14 13 13 13 13 13 13 13 14 15 15 16 17 17 18 19 19 20 21 21 21 21 21 21 22 22 22 22 23 24 24 24 24 23 22 22 22 22 22 22 21 19 19 19 19 19 19 19 19 18 18 18 18 18 18 18 18 18 19 20 21 22 23 25 26
23 24 25 26 26 25 24 23 22 21 19 17 15 15 15 15 15 14 14 15 15 15 15 14 14 14 13 12 12 12 12 13 14 15 15 15 16 17 18 19 19 20 20 20 20 20 20 21 21 22 23 23 23 23 23 22 21 21 21 21 21 21 20 19 19 19 19 19 19 19 19 18 18 17 17 17 17 18 19 20 21 22 23 24 26 27 29
23 24 25 26 26 25 24 23 22 21 20 18 17 15 14 14 14 14 14 14 15 15 16 16 16 16 15 14 13 13 13 14 15 15 15 15 15 16 17 17 18 19 19 19 19 19 19 20 21 21 22 22 23 23 22 21 20 20 21 21 22 21 21 20 19 19 19 19 19 19 18 18 17 17 17 17 18 19 20 21 22 23 24 26 28 28 28
22 23 24 25 26 25 24 23 22 21 21 19 18 17 16 15 14 14 14 15 15 16 16 17 17 18 18 17 17 16 17 16 16 16 16 16 16 16 17 17 17 18 19 19 19 19 19 19 20 21 21 22 22 22 21 20 20 20 21 21 21 21 21 20 20 19 19 19 19 18 18 18 17 17 18 19 19 20 21 22 23 24 25 27 28 27 25
22 23 24 24 25 25 24 23 22 21 21 20 19 18 17 16 15 15 15 15 15 15 16 16 17 18 18 19 19 19 19 19 18 17 17 16 16 16 16 16 17 18 19 19 19 19 19 19 20 20 20 21 21 21 20 20 20 21 21 21 21 21 21 20 20 19 19 19 18 18 18 18 18 18 19 20 20 21 22 22 23 25 26 27 26 25 24
22 22 23 24 25 25 25 24 22 21 20 20 20 19 18 17 17 16 16 16 15 15 15 16 17 17 17 17 18 18 18 18 18 17 16 16 16 16 16 16 16 17 18 18 19 19 19 19 19 19 19 20 20 20 20 21 21 21 21 22 22 22 21 20 20 20 19 19 19 19 19 18 19 19 20 20 21 21 21 22 23 25 25 25 24 23 23
22 22 23 23 24 25 25 25 23 22 20 20 20 19 18 18 17 17 16 15 15 15 15 16 16 17 16 17 17 17 17 16 17 16 15 15 15 15 15 15 15 16 17 17 18 18 19 19 19 19 19 19 19 20 20 20 20 20 21 22 22 22 22 21 20 19 19 19 19 19 19 19 19 20 20 21 21 20 20 21 23 24 24 23 23 21 20
22 22 23 23 24 25 25 26 25 23 21 20 20 20 18 18 17 16 15 14 13 14 14 15 16 16 16 17 17 16 15 15 15 15 14 14 15 15 15 15 15 15 15 16 17 17 18 18 18 19 19 19 18 18 18 19 19 20 21 22 22 22 21 20 20 19 19 20 20 19 19 19 19 20 20 20 20 19 20 21 22 22 22 22 21 19 18
23 23 23 23 24 24 25 26 26 25 23 21 20 20 19 18 17 15 14 13 13 13 13 14 14 15 15 15 15 14 13 13 14 13 13 13 14 14 14 14 15 15 15 15 16 16 17 18 18 18 18 18 18 17 17 17 18 20 22 22 22 22 21 20 20 20 20 20 20 19 18 18 19 19 19 19 19 19 19 20 21 21 21 20 19 17 16
24 24 24 24 24 24 25 25 26 25 24 23 21 20 20 19 18 16 14 13 13 13 13 13 13 13 13 13 13 12 11 11 12 11 11 11 11 11 12 13 13 14 15 15 15 15 16 16 16 17 17 17 17 17 17 17 18 19 20 21 21 21 21 20 20 21 20 20 19 19 18 18 19 19 19 18 18 19 19 19 19 19 19 18 17 16 16
24 24 24 24 24 25 25 25 26 26 25 24 23 21 20 19 19 17 16 14 14 14 13 13 13 13 12 12 11 10 9 9 9 8 7 7 8 9 10 11 11 12 13 14 13 13 14 14 15 15 16 16 16 16 17 17 18 18 19 19 20 20 20 21 21 21 20 20 19 19 19 19 19 19 18 18 18 19 19 19 18 17 17 16 16 16 16
25 25 25 25 25 25 25 25 26 26 26 26 25 23 21 20 19 18 17 16 15 15 14 14 14 14 13 13 12 10 9 8 7 6 5 6 6 7 7 8 9 10 11 12 12 12 12 13 14 15 15 15 16 16 16 17 17 18 18 19 20 21 21 21 21 22 21 21 20 20 20 19 19 19 18 19 19 19 19 19 18 17 16 15 15 15 15
Wind_Direction
240 231 228 230 232 233 233 234 234 236 239 242 242 243 245 248 251 254 255 256 258 258 258 258 259 262 266 268 269 266 263 265 267 268 267 263 269 277 251 227 226 227 222 216 215 217 223 227 224 223 225 220 213 212 210 210 215 216 217 222 225 223 222 221 223 225 226 228 231 237 241 243 242 239 238 238 238 240 243 246 248 250 250 254 256 255 257
255 247 236 233 233 234 235 235 234 236 238 241 242 243 244 247 250 253 255 257 259 259 258 258 258 261 265 266 268 266 263 265 265 263 265 264 259 253 229 215 218 215 208 205 207 208 214 219 218 221 225 220 212 213 212 209 211 214 217 224 228 225 221 221 223 226 228 231 234 239 242 242 242 241 241 240 242 247 252 253 255 254 250 250 251 251 252
258 259 251 243 239 238 237 234 232 234 237 239 242 243 244 246 249 252 254 256 258 258 258 258 259 260 263 265 265 264 263 264 262 256 258 255 240 227 219 222 229 216 200 194 194 196 204 211 212 215 219 215 212 213 213 208 208 212 218 223 225 222 220 223 229 233 235 237 237 240 243 243 244 247 249 249 248 251 254 255 257 256 246 240 242 245 248
252 253 250 245 244 244 240 234 230 232 236 238 241 243 244 246 248 252 254 255 255 256 256 257 258 259 261 262 262 262 264 266 262 255 251 246 237 227 224 236 240 219 202 201 206 207 210 213 217 221 218 212 210 210 209 208 209 214 218 220 221 223 225 231 236 236 236 238 238 240 244 246 246 248 252 253 249 248 249 250 253 255 244 235 235 240 244
242 243 244 243 241 243 241 233 229 232 236 239 242 244 245 246 247 250 254 255 255 255 256 257 257 255 256 258 258 258 259 262 264 260 255 251 249 245 241 245 240 220 213 219 222 221 222 222 220 219 215 211 209 208 209 214 218 219 219 219 222 228 232 234 236 235 234 235 236 237 240 243 244 247 250 251 248 247 248 249 253 256 251 242 237 237 241
232 233 239 244 242 241 240 235 233 236 238 240 242 245 246 247 247 248 250 252 254 255 256 258 259 257 255 255 256 255 253 253 257 259 256 253 253 252 248 245 242 235 232 233 235 234 230 226 223 219 216 215 213 212 215 218 220 221 222 220 221 225 228 228 231 232 231 233 234 236 239 242 245 248 250 249 247 248 250 253 258 260 259 252 244 239 242
230 232 238 242 240 235 233 234 236 239 241 242 243 245 246 246 245 244 246 247 250 253 253 253 255 257 257 256 256 255 249 246 248 251 250 250 251 252 248 243 241 245 244 241 242 243 235 227 223 217 214 216 216 214 213 215 217 218 219 220 221 224 226 226 229 231 230 230 233 237 241 245 247 248 247 246 246 247 249 254 258 261 261 256 246 242 247
231 236 239 239 237 227 219 227 235 241 247 248 247 247 249 247 243 241 242 243 245 248 250 249 249 251 254 256 257 258 254 248 246 246 245 245 248 252 252 250 246 247 248 244 241 239 232 224 219 214 213 214 213 212 213 217 222 223 223 224 227 229 230 232 233 235 235 237 240 243 245 247 247 247 245 244 245 246 249 253 257 256 254 250 245 246 252
236 237 239 240 242 244 242 244 250 256 263 263 253 247 248 247 243 240 241 242 242 243 245 246 247 248 250 253 256 259 258 253 249 247 244 242 244 248 251 251 247 245 246 243 238 232 227 223 219 215 213 213 213 216 221 225 229 231 232 233 234 234 235 236 238 240 241 242 243 243 243 244 245 245 245 246 246 248 251 254 254 252 251 250 251 254 258
245 244 244 247 251 256 260 262 264 267 272 276 268 252 244 243 242 241 241 243 242 240 240 242 243 245 250 255 257 258 258 254 251 248 242 239 242 245 245 244 243 243 243 242 239 231 224 224 223 218 215 217 221 225 228 230 232 235 237 238 238 238 238 237 237 239 240 241 241 240 240 241 243 245 246 248 250 252 254 255 255 254 254 255 257 259 261
248 251 255 260 265 269 271 271 270 270 272 276 276 263 246 241 242 243 243 244 244 240 237 236 238 245 254 257 256 256 255 252 250 248 244 243 244 242 239 239 243 245 244 241 236 229 223 224 225 222 221 225 229 230 231 233 234 235 236 238 240 239 238 237 237 237 237 239 240 241 241 242 243 246 248 250 252 255 257 258 258 257 257 258 259 260 261
247 251 255 261 266 270 273 275 273 269 270 271 269 260 246 237 237 239 242 245 248 247 242 235 231 236 243 243 242 246 248 246 245 245 243 243 243 240 240 245 251 254 251 244 236 228 225 229 230 227 227 230 230 230 232 234 235 234 234 236 238 240 239 237 236 237 238 240 242 244 245 246 245 247 249 252 256 258 260 261 261 261 261 261 261 261 261
243 247 249 254 259 263 266 268 265 261 260 259 257 251 239 230 229 233 237 239 242 248 249 241 230 227 230 232 235 240 242 242 242 242 238 238 240 242 245 249 252 254 254 250 241 231 227 230 230 227 227 228 228 228 231 234 235 234 233 235 237 238 238 237 236 236 237 240 243 245 247 248 249 250 252 255 258 259 261 262 262 262 262 261 261 261 261
240 240 240 244 249 254 256 255 253 251 250 248 247 244 237 231 230 234 238 238 236 237 244 246 240 235 236 239 242 244 243 242 242 242 240 238 240 243 245 246 247 247 247 246 240 231 227 227 228 227 226 227 227 228 232 235 234 233 235 237 238 238 238 238 237 236 238 240 243 245 246 247 249 250 252 254 255 256 258 259 259 259 259 259 259 259 260
236 234 234 236 239 245 249 247 245 245 245 244 240 239 237 234 231 231 235 240 241 239 239 240 239 237 233 233 238 243 245 245 244 245 244 242 240 240 241 242 243 243 242 238 233 227 225 225 225 225 225 227 229 233 235 236 235 234 235 237 239 241 241 240 239 240 241 241 241 243 245 246 247 250 252 253 254 255 256 257 257 257 258 259 260 261 262
230 233 235 236 237 241 245 243 239 239 243 243 239 237 237 237 234 230 228 232 238 239 237 235 232 228 221 216 218 226 232 235 236 235 234 231 228 226 227 230 231 231 231 230 227 226 226 226 227 228 229 230 234 237 238 237 236 235 236 238 241 243 244 243 243 245 249 250 249 249 250 250 251 252 253 255 256 257 258 260 261 262 263 264 265 266 267
234 236 238 240 241 242 244 243 239 236 240 244 242 241 240 240 240 236 230 228 232 234 234 233 232 229 225 223 224 223 221 220 219 218 216 216 217 216 217 219 220 219 220 223 226 228 229 231 234 236 236 237 237 238 239 239 239 240 241 242 244 245 248 249 250 252 255 257 258 258 258 258 258 257 258 259 261 263 264 266 267 268 269 270 270 270 271
244 244 245 245 245 246 247 249 249 247 247 249 249 249 248 246 246 242 234 227 228 233 235 233 232 229 225 226 232 235 234 231 227 223 220 220 221 224 226 228 230 231 233 236 240 242 241 240 240 240 239 239 239 239 240 241 242 243 244 247 250 253 256 258 258 259 259 260 261 262 263 264 265 265 265 266 267 269 270 270 271 271 272 272 272 272 272
253 253 253 252 253 253 253 253 254 254 253 252 252 252 253 252 251 248 240 230 226 228 232 234 232 228 222 221 227 235 241 243 242 240 239 237 236 238 240 242 244 246 248 250 252 253 251 248 246 243 242 241 241 242 243 244 245 248 250 253 256 258 260 260 261 261 261 262 262 263 264 265 266 267 267 268 269 270 270 271 271 271 271 271 271 272 272
263 263 262 258 257 257 257 256 255 255 254 254 253 252 252 252 252 251 248 241 234 230 231 232 231 227 223 222 223 227 232 238 242 245 247 247 247 246 246 247 249 251 253 254 254 254 253 252 250 247 246 244 244 245 245 246 247 249 251 253 255 256 257 257 257 258 259 259 260 261 262 263 263 264 265 265 266 267 268 268 269 270 270 270 270 271 271
278 276 273 270 267 264 263 261 259 258 257 256 255 254 253 253 253 253 253 252 248 242 239 238 237 234 230 228 227 227 229 232 235 238 241 243 245 247 247 247 248 249 251 251 251 251 252 252 252 252 251 250 250 250 249 249 250 251 252 253 253 254 254 255 255 256 256 257 258 259 260 260 261 262 263 264 265 266 267 268 269 269 269 270 270 270 271
302 297 290 284 281 278 274 271 268 266 264 262 260 259 257 256 256 255 255 255 255 253 250 248 246 245 243 240 237 236 236 236 237 237 238 239 240 242 243 244 245 246 247 248 250 252 253 254 254 254 254 254 255 255 255 255 254 254 255 255 255 256 256 256 257 257 257 258 259 260 261 261 262 264 265 266 267 267 268 268 269 269 270 270 270 271 271
319 313 306 299 294 290 287 283 279 276 274 271 268 265 263 261 260 258 257 256 255 255 254 253 251 250 249 248 247 246 245 245 245 245 245 245 244 244 245 245 246 247 247 248 250 252 254 256 257 257 258 258 259 259 259 258 257 257 257 257 258 258 259 259 260 260 261 261 262 263 264 265 265 266 267 267 267 268 268 268 269 269 270 270 271 271 271
318 313 309 304 300 297 293 289 286 283 281 278 276 274 271 268 264 262 260 258 257 255 254 253 252 251 249 248 247 247 248 249 250 251 252 253 253 253 253 254 254 255 256 256 257 257 258 259 261 261 262 262 262 261 261 260 260 260 260 260 260 260 261 261 262 262 263 263 264 265 266 267 268 268 268 268 268 268 268 269 270 270 271 271 271 272 272
313 310 307 305 302 299 296 292 289 287 284 282 280 278 276 274 271 269 266 263 261 259 257 256 254 253 251 250 249 248 248 249 250 252 253 255 256 257 258 259 260 262 263 263 264 264 263 262 262 263 263 263 263 262 262 263 263 263 263 263 264 264 264 265 266 266 267 267 268 269 269 270 270 271 271 271 271 272 272 272 272 273 273 273 273 274 274
319 316 312 307 304 300 297 294 291 288 285 283 281 279 278 276 274 272 270 268 266 264 263 261 258 256 254 253 252 252 251 251 251 252 253 254 256 257 259 260 261 262 263 264 264 265 264 265 265 264 264 263 263 263 263 264 265 265 266 267 268 268 269 269 270 270 270 271 271 272 272 273 273 273 274 274 275 275 275 275 275 275 275 276 276 276 276
323 320 316 311 307 303 300 296 293 289 285 282 280 280 279 277 275 273 271 269 267 265 264 263 262 261 260 258 256 255 254 254 254 254 254 255 256 256 257 259 260 261 262 263 264 265 266 268 269 270 270 270 269 269 268 268 268 268 268 269 269 269 270 270 271 271 271 272 273 274 274 275 275 276 276 277 277 278 278 278 278 278 278 277 277 277 277
321 317 314 311 308 306 304 301 297 294 291 288 285 284 283 281 278 275 272 269 266 263 261 260 260 260 260 260 259 258 257 256 256 256 256 257 257 257 258 259 261 262 264 265 267 268 270 272 273 274 275 275 275 275 274 274 273 272 272 272 271 271 271 272 272 272 273 274 274 275 276 276 277 277 277 278 278 279 279 279 279 279 279 278 278 278 278
318 315 313 311 309 307 305 303 301 299 297 295 293 290 287 284 280 276 272 269 265 262 259 257 256 256 256 256 257 257 257 257 256 256 256 257 258 259 260 261 263 264 266 268 269 271 272 274 275 276 276 277 277 277 277 277 277 276 276 275 275 275 275 275 275 275 276 276 277 277 277 277 277 277 278 278 278 278 278 279 279 279 280 280 279 279 280
317 315 314 311 309 307 305 303 302 301 299 297 294 291 287 282 279 276 272 269 265 262 260 258 257 255 254 254 254 254 255 255 256 256 256 256 257 257 259 260 262 264 265 267 268 270 271 272 273 274 274 275 275 275 276 276 276 276 276 276 276 276 276 277 277 277 278 278 278 278 278 277 277 277 277 278 278 278 279 279 279 280 280 281 281 281 282
319 317 315 312 310 309 308 307 305 302 299 296 293 290 286 282 279 277 275 272 268 264 262 261 260 259 257 256 255 254 254 254 255 255 255 256 256 257 258 259 260 261 263 264 265 267 267 268 269 269 270 270 270 271 271 272 272 273 273 274 274 275 275 276 276 277 277 278 278 278 278 277 277 278 278 279 279 279 279 280 280 280 281 281 282 282 283
323 321 318 316 315 315 314 312 309 305 301 298 296 293 290 286 283 281 278 275 270 266 262 261 261 261 260 259 259 258 257 257 256 256 256 256 257 257 258 258 259 260 261 261 262 263 264 265 265 265 265 265 266 267 267 268 269 270 270 271 271 272 272 273 274 275 276 276 277 278 278 279 279 280 280 280 280 279 280 280 279 279 279 280 280 281 281
326 325 323 322 323 322 320 317 313 308 303 299 297 295 292 289 287 286 284 280 275 269 265 262 261 261 261 261 261 260 260 259 259 258 258 258 258 258 258 259 259 260 260 261 261 262 262 263 263 263 263 263 264 265 265 266 267 267 268 269 269 270 271 272 273 275 276 277 277 278 278 279 279 279 279 279 279 279 278 277 276 275 276 277 278 279 280
329 329 327 327 328 327 324 322 319 314 306 300 296 293 290 288 289 292 292 290 284 276 269 265 263 262 262 262 262 262 261 260 259 259 258 258 258 258 258 258 259 259 260 260 261 261 262 262 262 262 262 263 264 264 264 265 266 267 268 268 269 270 271 272 274 275 276 276 276 275 275 275 275 275 276 275 275 274 273 273 272 273 275 277 279 282 284
332 332 331 331 332 330 327 326 325 319 310 302 296 292 290 289 290 292 293 293 291 285 279 273 269 266 264 263 262 262 261 260 259 258 258 257 257 256 256 257 257 258 259 259 260 260 260 261 261 261 262 262 263 263 264 265 266 267 268 269 270 271 272 273 273 273 273 272 271 270 268 268 268 268 268 269 270 271 272 273 274 276 279 282 284 286 288
335 335 335 335 335 333 330 330 329 324 315 304 297 294 293 292 291 292 293 293 294 291 288 284 280 276 271 267 264 261 260 259 259 258 257 257 256 256 255 255 256 257 258 258 258 259 259 260 261 261 262 262 263 264 265 266 267 268 269 270 270 271 271 271 270 269 268 267 266 264 263 262 261 261 262 264 268 271 274 277 279 282 284 285 286 287 288
337 337 337 337 337 336 335 334 332 327 319 307 299 296 296 293 290 289 291 293 294 294 294 292 289 284 279 274 269 264 260 259 258 258 258 258 257 257 256 256 256 257 257 257 257 258 259 260 261 261 262 263 263 264 265 265 266 267 268 268 269 269 268 267 265 264 263 261 260 260 259 259 259 260 262 265 269 273 277 280 283 285 286 286 287 287 287
338 339 339 339 339 338 337 336 334 330 322 311 301 297 295 293 292 292 293 295 297 299 302 302 298 290 284 278 272 266 261 258 257 257 257 257 258 258 258 258 258 258 258 258 258 258 258 259 260 260 261 261 262 263 263 264 264 264 265 266 266 265 264 261 259 257 256 255 255 256 257 258 260 262 265 268 272 276 279 281 282 283 284 285 287 288 289
338 339 340 341 340 339 338 338 336 333 326 316 306 298 294 293 292 293 294 295 297 299 304 305 301 294 287 280 275 269 263 258 256 256 256 257 257 258 258 258 259 259 259 259 259 259 260 260 260 260 261 261 261 262 261 261 261 262 262 262 262 260 257 254 252 250 250 250 252 254 257 259 261 264 267 270 274 277 278 279 280 282 285 288 290 292 294
337 340 341 342 342 341 340 339 338 336 330 321 310 301 297 295 294 293 292 292 293 295 300 305 304 298 289 281 274 270 265 262 259 257 257 256 256 257 257 258 257 257 257 257 257 257 258 259 259 260 260 260 260 260 260 260 259 259 259 258 256 253 249 247 246 247 249 251 254 257 259 261 263 266 269 272 275 275 276 278 281 285 289 292 295 297 299
335 339 342 344 343 342 341 341 340 338 334 326 314 303 297 294 293 292 290 289 288 289 292 296 300 299 293 285 277 272 269 266 263 260 259 257 257 257 258 258 258 257 255 254 254 254 255 255 256 256 256 257 257 258 258 258 257 256 255 252 248 244 242 243 245 249 251 254 257 259 260 261 264 267 269 272 273 275 278 282 287 291 293 296 298 300 302
333 337 342 344 345 343 342 342 342 341 338 332 324 313 303 296 292 290 289 287 286 284 283 285 290 293 292 288 284 282 280 277 273 269 266 264 262 261 260 259 259 258 257 256 254 252 252 252 252 253 253 254 255 256 257 256 254 251 248 244 241 239 240 243 247 251 254 257 259 259 260 262 264 267 270 273 277 281 285 290 293 295 297 300 302 304 304
331 335 340 344 345 345 343 343 342 342 340 336 331 325 317 307 299 294 290 288 286 284 282 282 283 282 280 278 278 281 283 283 281 278 274 271 268 265 263 262 260 259 258 256 254 252 252 252 252 253 254 254 255 256 255 254 250 246 242 238 238 238 241 245 249 253 255 257 258 258 259 262 265 269 274 278 283 287 290 292 294 296 300 303 306 306 304
328 333 337 341 344 345 345 344 342 341 340 337 333 329 324 318 310 302 297 293 289 286 285 283 282 279 277 276 277 279 282 284 283 281 278 274 270 267 265 264 263 261 260 258 256 254 253 253 253 254 255 256 256 256 254 251 246 241 238 236 238 240 243 246 250 252 254 256 257 258 261 264 268 273 278 282 286 289 291 292 295 299 303 306 307 305 302
326 330 334 337 341 344 345 345 342 340 339 337 333 328 323 319 313 307 302 299 295 293 290 288 286 284 282 281 280 281 282 282 282 281 279 276 272 268 265 263 262 261 261 260 258 256 254 254 254 255 255 256 256 255 252 247 243 239 237 236 239 242 244 246 249 251 253 255 257 259 263 267 272 277 281 284 287 289 291 295 299 304 307 308 307 306 305
324 328 331 334 338 342 344 345 343 340 337 335 333 330 325 319 313 307 303 300 299 297 295 292 289 288 286 284 282 282 281 281 280 280 279 277 274 272 268 265 261 260 260 260 260 258 257 255 254 254 254 254 253 252 249 245 242 239 237 239 242 244 245 246 247 249 251 253 257 260 263 268 273 278 282 285 287 289 293 298 304 308 310 310 310 310 310
322 325 328 331 335 339 342 344 343 340 336 333 332 331 327 321 315 311 306 301 298 298 298 296 293 291 288 285 283 284 283 282 281 281 281 279 276 273 271 268 264 261 259 259 260 260 259 257 255 254 253 252 250 249 247 244 241 238 237 239 242 245 246 246 246 248 250 253 255 258 262 267 272 278 281 284 286 290 296 303 308 311 312 313 314 315 315
320 322 325 329 332 335 338 341 342 341 337 332 330 329 326 322 317 313 308 302 297 297 298 297 296 294 290 287 286 286 285 283 281 280 279 277 276 274 272 271 268 265 263 261 261 262 260 258 255 252 251 250 249 247 246 243 240 237 237 239 242 244 245 245 244 246 248 249 251 254 258 264 270 276 280 283 287 293 300 306 310 312 314 316 318 319 319
319 321 323 326 329 332 335 337 339 341 339 334 329 326 323 321 318 313 306 300 297 297 298 298 297 295 293 291 290 289 286 283 280 279 277 276 276 276 274 271 269 267 265 264 263 263 261 259 255 251 249 247 246 245 243 242 240 238 238 238 239 240 240 240 241 242 244 246 248 252 257 263 269 275 278 282 287 295 302 307 310 312 315 318 321 323 323
320 321 322 324 327 329 332 334 335 337 337 335 330 325 321 318 315 310 303 297 294 294 297 297 297 295 295 295 294 292 289 286 285 285 283 279 276 274 273 270 267 264 262 261 262 263 263 260 254 249 246 245 243 241 240 239 240 240 239 238 236 235 234 235 236 238 241 244 248 252 257 263 269 273 277 281 288 295 301 305 309 312 315 319 324 326 327
319 320 320 322 324 327 329 331 332 332 333 333 330 325 320 315 312 308 302 295 290 289 291 292 292 291 291 293 293 290 287 287 289 292 293 288 281 276 273 270 267 265 261 258 256 259 263 263 256 249 244 242 240 239 238 238 238 239 239 237 234 232 232 233 234 236 239 243 247 251 256 261 266 271 275 281 287 292 298 302 306 309 313 318 323 327 329
319 319 320 321 323 325 326 327 328 328 329 329 328 325 320 315 309 305 299 292 286 283 283 283 283 283 283 283 281 278 275 277 282 288 295 299 299 297 292 285 278 273 269 263 257 255 259 262 260 255 250 245 240 238 236 235 235 236 236 235 234 234 234 234 236 238 241 244 248 250 254 259 263 268 272 277 282 288 293 297 301 304 309 315 319 323 327
Height
5657 5659 5661 5663 5664 5666 5667 5669 5671 5672 5674 5675 5677 5678 5680 5681 5682 5683 5684 5685 5687 5689 5690 5691 5692 5693 5693 5694 5695 5696 5697 5697 5698 5699 5699 5699 5700 5700 5699 5700 5701 5703 5704 5705 5707 5708 5709 5710 5711 5713 5715 5715 5716 5717 5718 5720 5722 5724 5728 5730 5732 5733 5735 5735 5736 5738 5739 5741 5742 5742 5744 5746 5747 5747 5748 5749 5750 5751 5752 5752 5753 5754 5754 5755 5756 5757 5758
5655 5656 5658 5660 5661 5663 5664 5666 5667 5669 5670 5672 5674 5675 5677 5678 5679 5680 5681 5683 5684 5686 5687 5688 5689 5690 5691 5692 5693 5694 5695 5695 5696 5697 5697 5697 5698 5699 5699 5700 5701 5702 5703 5704 5705 5706 5707 5708 5709 5711 5712 5712 5714 5715 5716 5718 5720 5722 5725 5728 5729 5731 5732 5733 5734 5736 5737 5738 5739 5740 5742 5743 5744 5744 5745 5746 5748 5748 5749 5749 5750 5751 5752 5753 5753 5754 5755
5652 5654 5655 5656 5658 5659 5660 5661 5663 5666 5667 5669 5670 5672 5674 5675 5677 5678 5679 5680 5681 5683 5684 5685 5686 5687 5688 5690 5691 5693 5694 5694 5695 5695 5695 5696 5697 5698 5699 5699 5700 5702 5703 5704 5704 5705 5706 5706 5707 5708 5709 5710 5711 5713 5715 5717 5718 5720 5722 5725 5727 5728 5729 5731 5732 5734 5735 5736 5737 5738 5739 5741 5741 5741 5742 5743 5744 5745 5745 5746 5747 5748 5748 5750 5751 5752 5752
5650 5651 5653 5653 5654 5655 5656 5657 5659 5662 5664 5665 5667 5668 5670 5672 5673 5675 5676 5677 5678 5680 5681 5682 5683 5684 5685 5687 5689 5690 5692 5692 5693 5693 5693 5694 5695 5696 5697 5698 5699 5700 5702 5703 5704 5704 5705 5705 5705 5706 5708 5709 5710 5712 5714 5715 5717 5719 5720 5722 5724 5725 5726 5728 5729 5731 5732 5733 5734 5736 5736 5737 5738 5739 5739 5740 5740 5741 5742 5743 5744 5745 5746 5747 5748 5749 5749
5648 5649 5650 5650 5652 5653 5653 5654 5656 5659 5661 5662 5664 5665 5667 5669 5670 5671 5672 5673 5675 5677 5678 5679 5680 5681 5682 5684 5685 5687 5689 5690 5690 5691 5692 5692 5693 5694 5695 5696 5697 5698 5700 5701 5702 5703 5703 5703 5704 5705 5706 5707 5708 5710 5712 5713 5715 5716 5718 5720 5722 5723 5723 5725 5726 5728 5729 5730 5731 5732 5733 5734 5735 5736 5736 5737 5738 5739 5740 5741 5741 5742 5743 5744 5745 5746 5747
5645 5646 5647 5648 5649 5650 5651 5652 5654 5656 5657 5659 5660 5661 5663 5665 5666 5667 5669 5670 5672 5673 5675 5676 5677 5678 5679 5680 5682 5684 5686 5687 5688 5689 5689 5690 5691 5691 5693 5694 5695 5696 5697 5698 5699 5700 5701 5701 5702 5703 5704 5705 5706 5708 5710 5712 5713 5714 5716 5717 5718 5719 5720 5722 5723 5724 5726 5727 5728 5729 5730 5731 5732 5733 5734 5735 5736 5736 5737 5738 5739 5739 5740 5741 5742 5743 5744
5641 5643 5645 5646 5647 5647 5648 5649 5651 5652 5654 5655 5657 5658 5659 5660 5662 5663 5665 5667 5669 5670 5672 5673 5674 5675 5676 5677 5678 5680 5682 5684 5685 5686 5687 5688 5688 5689 5690 5691 5692 5693 5694 5695 5696 5697 5698 5699 5700 5701 5702 5703 5704 5706 5708 5710 5711 5712 5713 5714 5715 5716 5717 5718 5719 5721 5722 5724 5725 5726 5727 5728 5729 5730 5731 5732 5733 5734 5735 5735 5736 5736 5737 5738 5739 5740 5741
5639 5640 5642 5644 5645 5645 5646 5647 5648 5649 5651 5652 5653 5654 5655 5656 5657 5659 5661 5663 5665 5667 5668 5670 5671 5672 5673 5674 5675 5677 5679 5680 5682 5683 5684 5685 5686 5686 5687 5688 5689 5690 5691 5693 5694 5695 5695 5696 5697 5698 5699 5700 5702 5704 5706 5707 5708 5710 5711 5712 5713 5714 5715 5716 5717 5718 5719 5720 5721 5722 5724 5725 5726 5727 5728 5729 5730 5731 5732 5732 5733 5733 5734 5735 5736 5737 5737
5637 5638 5639 5641 5642 5643 5644 5645 5646 5647 5648 5649 5649 5650 5651 5652 5653 5656 5658 5659 5661 5663 5664 5666 5667 5669 5670 5670 5672 5673 5675 5677 5679 5680 5681 5682 5683 5683 5683 5684 5685 5687 5688 5690 5691 5692 5693 5693 5694 5696 5697 5698 5700 5702 5703 5705 5706 5707 5708 5709 5710 5711 5712 5713 5714 5715 5716 5717 5718 5719 5720 5721 5722 5723 5724 5725 5726 5727 5728 5729 5730 5730 5731 5731 5732 5733 5734
5635 5636 5637 5638 5639 5641 5642 5643 5644 5645 5646 5646 5646 5647 5648 5649 5650 5652 5654 5655 5657 5659 5661 5662 5664 5665 5666 5667 5668 5670 5671 5673 5675 5676 5677 5679 5679 5680 5680 5681 5682 5683 5685 5686 5687 5689 5690 5691 5692 5693 5695 5696 5697 5699 5700 5702 5703 5704 5705 5706 5707 5708 5708 5709 5711 5712 5713 5713 5714 5716 5717 5718 5718 5719 5720 5721 5723 5724 5724 5725 5726 5727 5727 5728 5728 5729 5730
5632 5634 5635 5636 5637 5638 5639 5641 5642 5643 5643 5644 5645 5645 5646 5646 5647 5649 5650 5651 5652 5654 5656 5658 5660 5662 5663 5664 5664 5666 5668 5669 5671 5672 5674 5674 5675 5676 5676 5677 5678 5679 5681 5683 5684 5685 5686 5687 5689 5691 5692 5693 5694 5695 5696 5698 5699 5700 5701 5702 5703 5704 5705 5706 5707 5708 5709 5710 5711 5712 5713 5714 5715 5716 5717 5718 5719 5720 5721 5722 5722 5723 5723 5724 5724 5725 5725
5630 5631 5633 5634 5635 5636 5637 5639 5640 5640 5641 5642 5643 5643 5644 5644 5645 5646 5646 5647 5648 5649 5651 5654 5656 5659 5660 5660 5660 5662 5664 5665 5667 5669 5670 5671 5671 5672 5673 5674 5674 5675 5677 5678 5680 5681 5682 5684 5686 5687 5688 5689 5690 5691 5693 5694 5695 5696 5697 5698 5699 5700 5701 5702 5703 5704 5705 5706 5708 5709 5709 5710 5711 5712 5713 5714 5714 5715 5716 5717 5718 5719 5719 5719 5720 5720 5720
5627 5629 5631 5632 5633 5634 5636 5637 5637 5638 5639 5640 5641 5642 5642 5643 5643 5644 5644 5645 5646 5647 5647 5649 5652 5654 5655 5655 5656 5658 5660 5662 5664 5665 5666 5667 5667 5668 5669 5670 5671 5672 5673 5674 5675 5676 5678 5679 5681 5683 5684 5685 5686 5688 5689 5690 5691 5692 5693 5695 5696 5696 5698 5699 5700 5701 5702 5703 5704 5705 5706 5706 5707 5708 5709 5710 5710 5711 5712 5712 5713 5714 5714 5714 5714 5715 5715
5626 5627 5629 5630 5631 5632 5633 5634 5635 5636 5636 5637 5639 5640 5641 5641 5641 5642 5642 5643 5644 5645 5645 5646 5648 5649 5651 5652 5652 5654 5656 5658 5660 5661 5661 5662 5663 5664 5665 5666 5667 5668 5670 5671 5672 5673 5674 5676 5677 5678 5680 5681 5683 5684 5685 5686 5688 5689 5690 5691 5692 5693 5694 5695 5696 5697 5698 5699 5700 5701 5702 5703 5704 5704 5705 5706 5706 5707 5707 5707 5708 5708 5708 5709 5709 5709 5709
5625 5626 5627 5628 5629 5630 5631 5632 5633 5633 5634 5635 5636 5638 5639 5639 5639 5640 5640 5641 5641 5643 5644 5644 5645 5647 5648 5649 5649 5650 5651 5653 5655 5656 5657 5659 5660 5661 5661 5662 5664 5665 5666 5668 5669 5670 5671 5672 5673 5675 5676 5678 5679 5680 5681 5683 5684 5685 5686 5687 5688 5689 5690 5691 5692 5693 5694 5695 5696 5697 5698 5699 5700 5700 5701 5701 5701 5702 5702 5702 5703 5703 5703 5703 5704 5704 5704
5624 5625 5626 5627 5628 5629 5629 5630 5631 5631 5632 5633 5634 5635 5636 5636 5637 5638 5638 5639 5639 5640 5641 5642 5643 5644 5646 5646 5646 5647 5648 5649 5651 5653 5654 5655 5657 5658 5658 5659 5660 5662 5663 5664 5666 5667 5668 5669 5670 5671 5673 5674 5675 5677 5678 5679 5680 5681 5681 5682 5683 5685 5686 5687 5689 5689 5690 5691 5692 5693 5693 5695 5695 5696 5696 5697 5697 5697 5697 5698 5698 5698 5698 5698 5698 5698 5698
5623 5624 5625 5626 5627 5627 5628 5628 5629 5629 5630 5630 5631 5632 5633 5634 5635 5635 5636 5637 5637 5637 5638 5639 5640 5641 5643 5643 5644 5644 5645 5646 5648 5649 5650 5652 5653 5654 5655 5656 5657 5658 5659 5661 5662 5664 5665 5666 5667 5668 5669 5670 5671 5673 5674 5675 5675 5676 5677 5678 5679 5680 5682 5683 5684 5685 5686 5686 5686 5687 5688 5689 5690 5690 5691 5691 5692 5692 5692 5692 5692 5692 5692 5692 5692 5691 5690
5622 5623 5624 5625 5625 5626 5626 5627 5627 5628 5628 5628 5629 5630 5630 5631 5632 5633 5633 5634 5634 5634 5635 5636 5638 5639 5640 5640 5641 5642 5642 5643 5644 5645 5647 5648 5649 5650 5651 5652 5653 5654 5655 5657 5658 5660 5661 5662 5664 5665 5665 5666 5667 5668 5669 5670 5671 5672 5673 5674 5675 5676 5677 5678 5679 5680 5680 5680 5681 5681 5682 5683 5683 5684 5685 5685 5685 5685 5685 5685 5685 5685 5685 5685 5684 5684 5683
5621 5622 5622 5623 5624 5624 5624 5625 5625 5626 5626 5626 5627 5628 5628 5629 5629 5630 5630 5631 5631 5632 5632 5633 5635 5636 5637 5637 5638 5639 5639 5640 5640 5641 5642 5644 5645 5645 5646 5647 5648 5649 5650 5652 5653 5655 5656 5658 5659 5660 5661 5662 5663 5664 5664 5665 5666 5667 5668 5669 5670 5671 5672 5673 5673 5674 5674 5675 5675 5676 5677 5677 5678 5678 5678 5679 5679 5679 5679 5679 5679 5678 5678 5677 5677 5676 5675
5620 5620 5621 5621 5622 5622 5622 5623 5623 5623 5623 5624 5625 5625 5625 5626 5626 5626 5627 5628 5628 5629 5630 5630 5632 5633 5633 5634 5634 5635 5635 5636 5637 5638 5639 5639 5640 5641 5641 5642 5643 5644 5645 5646 5648 5649 5650 5652 5653 5655 5656 5657 5658 5659 5660 5660 5661 5662 5663 5664 5665 5666 5667 5667 5668 5669 5669 5669 5670 5671 5671 5672 5672 5672 5672 5673 5673 5673 5673 5673 5672 5672 5671 5670 5670 5669 5669
5619 5619 5619 5620 5620 5620 5620 5620 5621 5621 5621 5621 5621 5622 5622 5622 5623 5623 5623 5624 5625 5626 5626 5627 5628 5629 5629 5630 5630 5631 5631 5632 5632 5633 5634 5635 5636 5636 5637 5639 5639 5640 5641 5642 5643 5644 5646 5647 5649 5650 5651 5652 5653 5653 5654 5655 5656 5657 5658 5659 5660 5661 5662 5662 5663 5664 5664 5664 5665 5665 5666 5666 5666 5666 5666 5666 5667 5667 5667 5666 5666 5665 5664 5663 5663 5662 5661
5618 5618 5618 5618 5618 5618 5618 5618 5618 5618 5618 5618 5618 5618 5619 5619 5619 5619 5620 5620 5621 5621 5622 5623 5624 5624 5625 5625 5626 5626 5627 5627 5628 5628 5629 5630 5631 5632 5633 5634 5635 5636 5637 5638 5639 5640 5641 5642 5644 5645 5646 5646 5647 5648 5649 5650 5651 5652 5653 5654 5655 5655 5656 5657 5658 5658 5658 5659 5659 5659 5660 5660 5660 5660 5660 5660 5660 5660 5660 5660 5659 5658 5656 5656 5655 5655 5654
5617 5617 5617 5617 5617 5617 5616 5616 5616 5615 5615 5615 5614 5615 5615 5615 5615 5615 5616 5616 5617 5617 5617 5618 5619 5619 5620 5621 5622 5622 5623 5623 5623 5624 5624 5625 5626 5627 5628 5629 5630 5631 5632 5633 5634 5635 5636 5637 5638 5639 5640 5641 5641 5642 5643 5644 5645 5646 5647 5648 5649 5649 5650 5651 5651 5651 5652 5652 5653 5653 5653 5652 5653 5653 5653 5653 5653 5653 5652 5652 5651 5650 5649 5648 5647 5647 5646
5616 5616 5616 5615 5615 5615 5614 5614 5614 5613 5612 5612 5611 5611 5611 5611 5611 5611 5611 5612 5612 5613 5613 5613 5614 5614 5615 5616 5616 5617 5617 5618 5618 5619 5619 5620 5621 5622 5622 5623 5624 5625 5626 5627 5628 5629 5630 5631 5632 5633 5634 5635 5635 5635 5636 5637 5638 5639 5640 5641 5642 5642 5643 5643 5644 5644 5645 5645 5646 5646 5646 5645 5645 5644 5644 5644 5644 5644 5644 5644 5643 5642 5641 5640 5638 5637 5636
5615 5615 5614 5614 5613 5612 5612 5611 5611 5610 5610 5609 5608 5607 5607 5607 5607 5607 5607 5607 5607 5608 5608 5608 5609 5609 5610 5610 5611 5611 5612 5612 5613 5614 5614 5614 5615 5615 5616 5617 5618 5618 5619 5620 5622 5623 5624 5625 5626 5627 5628 5629 5629 5628 5629 5630 5631 5632 5633 5634 5634 5635 5635 5636 5636 5637 5637 5637 5638 5638 5638 5638 5637 5636 5635 5634 5634 5634 5635 5635 5634 5632 5631 5630 5629 5627 5626
5613 5613 5612 5611 5610 5609 5608 5607 5607 5606 5606 5605 5604 5603 5602 5602 5602 5602 5602 5603 5603 5603 5603 5603 5603 5604 5604 5604 5605 5605 5606 5607 5608 5608 5608 5609 5609 5609 5610 5610 5611 5612 5613 5614 5615 5616 5617 5618 5619 5621 5622 5623 5622 5622 5623 5624 5625 5625 5626 5627 5627 5627 5628 5628 5629 5629 5629 5630 5630 5630 5629 5629 5628 5628 5626 5625 5624 5624 5624 5624 5624 5623 5622 5620 5619 5618 5617
5610 5610 5609 5608 5607 5605 5604 5603 5602 5601 5601 5600 5599 5598 5597 5596 5596 5596 5596 5597 5597 5597 5597 5598 5598 5598 5598 5599 5599 5600 5600 5601 5601 5602 5603 5603 5603 5604 5604 5604 5605 5606 5607 5608 5609 5610 5610 5611 5612 5613 5615 5615 5615 5615 5616 5617 5618 5619 5619 5620 5620 5620 5621 5621 5622 5622 5622 5622 5622 5622 5621 5620 5620 5619 5618 5617 5616 5615 5614 5614 5614 5614 5613 5612 5611 5610 5609
5608 5607 5605 5604 5602 5601 5599 5598 5596 5595 5594 5593 5592 5591 5591 5590 5589 5589 5589 5590 5590 5591 5591 5591 5592 5592 5592 5593 5593 5594 5594 5595 5595 5596 5597 5597 5598 5598 5598 5598 5599 5599 5600 5601 5602 5603 5603 5604 5605 5606 5607 5607 5607 5607 5608 5609 5610 5611 5612 5613 5613 5613 5613 5614 5614 5614 5614 5615 5614 5614 5613 5612 5612 5611 5610 5610 5609 5608 5607 5606 5606 5606 5605 5605 5604 5603 5602
5605 5604 5602 5600 5598 5596 5594 5592 5590 5588 5587 5586 5585 5584 5583 5583 5583 5582 5582 5582 5582 5583 5583 5584 5585 5585 5586 5587 5587 5588 5588 5589 5590 5591 5592 5592 5593 5593 5593 5593 5594 5594 5594 5595 5595 5596 5597 5597 5598 5599 5600 5600 5600 5601 5601 5602 5603 5603 5604 5605 5605 5605 5605 5606 5606 5606 5607 5607 5607 5606 5606 5605 5605 5604 5604 5604 5603 5602 5601 5600 5599 5599 5598 5598 5597 5597 5596
5603 5601 5599 5597 5594 5592 5589 5587 5584 5582 5580 5579 5578 5578 5577 5577 5576 5576 5576 5576 5576 5576 5576 5577 5577 5578 5579 5580 5581 5581 5582 5583 5584 5585 5586 5587 5587 5588 5589 5589 5589 5589 5590 5590 5591 5591 5592 5592 5593 5594 5594 5594 5595 5595 5596 5596 5596 5597 5598 5598 5598 5598 5598 5599 5599 5599 5600 5600 5600 5600 5599 5599 5599 5599 5598 5598 5597 5596 5595 5594 5594 5593 5592 5591 5591 5590 5589
5600 5598 5596 5593 5591 5587 5584 5581 5579 5576 5575 5574 5573 5573 5572 5572 5571 5571 5571 5571 5571 5570 5570 5571 5571 5571 5572 5573 5574 5575 5576 5577 5578 5579 5580 5581 5582 5583 5583 5584 5584 5585 5585 5586 5586 5587 5588 5588 5589 5590 5590 5590 5590 5591 5591 5591 5592 5592 5593 5593 5593 5593 5593 5593 5594 5594 5595 5595 5595 5594 5594 5594 5594 5593 5593 5593 5592 5591 5590 5590 5589 5588 5587 5586 5586 5585 5584
5597 5595 5592 5590 5586 5583 5579 5576 5574 5572 5570 5569 5569 5568 5568 5567 5567 5566 5566 5566 5566 5566 5566 5566 5566 5566 5567 5567 5568 5569 5570 5571 5572 5573 5574 5575 5576 5577 5578 5578 5579 5579 5580 5581 5582 5582 5583 5584 5584 5585 5585 5586 5586 5586 5587 5587 5587 5588 5588 5589 5589 5589 5589 5589 5589 5589 5590 5590 5590 5589 5589 5588 5589 5588 5588 5588 5587 5587 5586 5585 5584 5583 5582 5582 5582 5581 5581
5594 5591 5589 5585 5582 5578 5575 5572 5570 5569 5567 5566 5565 5565 5564 5563 5562 5562 5562 5562 5562 5561 5561 5562 5562 5562 5562 5563 5563 5564 5564 5565 5566 5567 5568 5569 5570 5571 5572 5573 5574 5574 5575 5576 5577 5578 5578 5579 5579 5580 5580 5581 5581 5582 5582 5582 5583 5583 5584 5584 5584 5585 5585 5585 5585 5585 5585 5585 5585 5585 5584 5584 5584 5584 5583 5583 5583 5582 5582 5581 5580 5579 5579 5579 5579 5578 5577
5591 5588 5585 5581 5578 5574 5572 5569 5567 5566 5564 5563 5562 5562 5561 5560 5559 5559 5559 5559 5559 5558 5558 5558 5558 5558 5558 5559 5559 5560 5560 5561 5561 5562 5563 5564 5565 5566 5567 5568 5568 5569 5570 5571 5572 5573 5573 5573 5574 5575 5576 5576 5577 5577 5577 5578 5578 5579 5579 5580 5580 5580 5581 5581 5581 5580 5581 5581 5581 5581 5580 5580 5580 5580 5580 5579 5579 5578 5578 5578 5577 5576 5576 5576 5575 5575 5574
5588 5585 5582 5578 5575 5572 5569 5567 5565 5563 5561 5560 5560 5559 5558 5558 5557 5557 5556 5556 5556 5556 5556 5555 5555 5555 5555 5555 5556 5556 5556 5557 5557 5558 5559 5559 5560 5561 5562 5563 5564 5564 5565 5566 5567 5568 5568 5568 5569 5570 5571 5572 5572 5572 5573 5573 5574 5574 5574 5575 5576 5576 5576 5576 5576 5576 5576 5577 5577 5577 5577 5577 5577 5577 5576 5576 5576 5575 5574 5574 5573 5573 5573 5572 5572 5571 5570
5586 5583 5580 5576 5572 5570 5567 5565 5563 5561 5559 5558 5557 5556 5556 5555 5555 5555 5554 5554 5554 5554 5553 5553 5552 5552 5552 5552 5552 5552 5553 5553 5553 5554 5555 5555 5556 5557 5558 5558 5559 5560 5560 5561 5562 5563 5563 5564 5565 5566 5567 5567 5568 5568 5568 5569 5569 5569 5570 5571 5571 5571 5572 5572 5572 5572 5572 5573 5573 5573 5573 5573 5573 5573 5573 5573 5572 5572 5571 5571 5570 5570 5569 5569 5568 5567 5567
5583 5580 5577 5573 5570 5567 5565 5563 5561 5559 5557 5556 5555 5554 5554 5553 5553 5552 5552 5552 5552 5552 5551 5551 5550 5550 5549 5549 5549 5549 5550 5550 5550 5550 5551 5551 5552 5553 5553 5554 5555 5555 5556 5557 5558 5558 5559 5559 5560 5561 5562 5563 5563 5564 5564 5565 5565 5565 5566 5566 5567 5567 5568 5568 5568 5568 5569 5569 5569 5570 5570 5570 5570 5570 5570 5570 5569 5568 5568 5568 5567 5567 5566 5565 5565 5564 5563
5581 5578 5575 5572 5568 5566 5563 5561 5559 5557 5555 5554 5553 5552 5552 5551 5551 5550 5550 5550 5550 5549 5549 5548 5548 5547 5547 5547 5547 5547 5547 5547 5547 5547 5547 5548 5548 5549 5550 5550 5551 5551 5552 5553 5553 5554 5555 5555 5556 5557 5558 5558 5559 5559 5560 5560 5561 5561 5561 5562 5563 5563 5564 5564 5564 5565 5565 5566 5566 5566 5567 5567 5567 5567 5567 5566 5566 5566 5565 5565 5564 5564 5563 5562 5561 5561 5560
5579 5577 5574 5571 5567 5565 5562 5560 5558 5555 5553 5552 5551 5550 5550 5549 5549 5548 5548 5548 5547 5547 5547 5546 5545 5545 5544 5544 5544 5544 5544 5544 5544 5544 5544 5545 5545 5545 5546 5546 5547 5548 5548 5549 5549 5550 5551 5551 5552 5553 5553 5554 5555 5555 5556 5556 5557 5557 5558 5558 5559 5560 5560 5561 5561 5562 5562 5563 5563 5563 5564 5564 5564 5564 5564 5563 5563 5563 5562 5562 5561 5561 5560 5559 5558 5558 5557
5578 5575 5573 5569 5566 5563 5561 5559 5556 5554 5552 5550 5549 5548 5548 5547 5547 5546 5546 5546 5545 5545 5545 5544 5543 5543 5542 5542 5542 5541 5541 5541 5541 5541 5542 5542 5542 5542 5543 5543 5543 5544 5545 5545 5546 5546 5547 5548 5548 5549 5550 5550 5551 5551 5552 5552 5553 5554 5554 5555 5556 5556 5557 5558 5558 5559 5560 5560 5560 5561 5561 5561 5561 5561 5561 5561 5560 5560 5560 5559 5558 5558 5557 5556 5555 5554 5553
5576 5574 5571 5568 5565 5562 5560 5558 5555 5553 5551 5549 5548 5546 5546 5545 5545 5544 5544 5544 5543 5543 5542 5542 5542 5541 5540 5540 5539 5539 5539 5539 5539 5539 5539 5539 5539 5540 5540 5540 5540 5541 5542 5542 5543 5543 5543 5544 5545 5545 5546 5546 5547 5547 5548 5549 5550 5550 5551 5552 5552 5553 5554 5555 5556 5556 5557 5557 5558 5558 5558 5558 5558 5558 5558 5558 5558 5557 5557 5556 5555 5555 5554 5553 5552 5551 5549
5574 5572 5570 5567 5564 5562 5559 5557 5554 5552 5550 5548 5547 5545 5544 5544 5543 5543 5542 5541 5541 5541 5540 5540 5540 5539 5539 5538 5538 5537 5537 5537 5536 5536 5536 5536 5537 5537 5537 5537 5538 5538 5538 5539 5539 5540 5540 5541 5541 5542 5542 5543 5543 5544 5545 5546 5546 5547 5547 5548 5549 5550 5551 5552 5553 5554 5554 5554 5555 5555 5555 5555 5555 5555 5555 5555 5555 5554 5554 5553 5552 5551 5550 5549 5548 5547 5545
5572 5570 5568 5566 5563 5560 5558 5556 5553 5551 5549 5547 5546 5544 5543 5542 5541 5541 5540 5539 5539 5538 5538 5537 5537 5537 5536 5536 5536 5535 5535 5534 5534 5534 5534 5534 5534 5534 5534 5534 5535 5535 5535 5535 5536 5536 5537 5537 5538 5538 5539 5539 5540 5540 5541 5542 5543 5543 5544 5545 5546 5547 5549 5549 5550 5551 5551 5552 5552 5552 5552 5552 5552 5552 5552 5552 5551 5551 5550 5550 5549 5548 5547 5546 5545 5543 5542
5570 5568 5566 5564 5562 5559 5557 5554 5552 5550 5548 5546 5545 5543 5542 5540 5539 5539 5538 5537 5536 5536 5535 5535 5534 5534 5534 5534 5533 5533 5533 5532 5532 5531 5531 5531 5531 5531 5531 5531 5531 5532 5532 5532 5533 5533 5534 5534 5535 5535 5535 5536 5536 5537 5538 5539 5539 5540 5541 5542 5543 5545 5546 5547 5547 5548 5548 5549 5549 5549 5549 5550 5550 5549 5549 5549 5548 5548 5547 5547 5546 5545 5544 5543 5541 5540 5538
5568 5566 5564 5562 5560 5558 5555 5553 5551 5549 5547 5545 5543 5542 5540 5539 5538 5537 5536 5535 5534 5534 5533 5533 5532 5532 5531 5531 5531 5530 5530 5529 5529 5529 5529 5528 5528 5528 5528 5528 5528 5528 5529 5529 5529 5530 5530 5531 5531 5532 5532 5533 5533 5534 5535 5535 5536 5537 5538 5539 5541 5542 5543 5544 5544 5545 5545 5546 5546 5546 5546 5547 5547 5546 5546 5546 5545 5545 5544 5544 5543 5542 5541 5540 5538 5537 5535
5566 5564 5562 5560 5558 5556 5554 5552 5550 5548 5546 5544 5542 5541 5539 5538 5536 5535 5534 5533 5533 5532 5531 5531 5530 5529 5529 5529 5528 5527 5527 5526 5526 5526 5526 5525 5525 5525 5525 5525 5525 5526 5526 5526 5526 5527 5527 5527 5528 5529 5529 5530 5530 5531 5531 5532 5533 5534 5535 5537 5538 5539 5540 5541 5541 5542 5542 5543 5543 5543 5543 5544 5544 5543 5543 5543 5543 5542 5541 5541 5540 5539 5538 5536 5535 5533 5532
5563 5561 5560 5558 5556 5554 5552 5550 5548 5546 5544 5543 5541 5539 5538 5536 5535 5533 5532 5531 5531 5530 5529 5528 5528 5527 5527 5526 5526 5525 5524 5524 5523 5523 5523 5523 5522 5522 5522 5522 5522 5523 5523 5523 5523 5524 5524 5524 5525 5525 5526 5527 5527 5528 5528 5529 5530 5531 5533 5534 5535 5536 5537 5537 5538 5538 5539 5539 5540 5540 5540 5540 5540 5540 5540 5540 5540 5539 5539 5538 5537 5536 5535 5534 5532 5531 5529
5560 5559 5557 5555 5553 5551 5549 5548 5546 5544 5542 5541 5539 5538 5536 5535 5533 5532 5531 5530 5529 5528 5527 5526 5525 5525 5524 5524 5523 5522 5522 5521 5520 5520 5520 5520 5519 5519 5519 5519 5519 5519 5520 5520 5520 5521 5521 5521 5522 5522 5523 5523 5524 5525 5525 5526 5527 5528 5529 5531 5532 5532 5533 5534 5534 5535 5536 5536 5536 5537 5537 5537 5537 5537 5537 5537 5537 5536 5536 5535 5534 5533 5533 5531 5530 5528 5527
5557 5556 5554 5553 5551 5549 5547 5545 5544 5542 5540 5539 5537 5536 5534 5533 5532 5530 5529 5528 5527 5526 5525 5525 5524 5523 5522 5521 5521 5520 5519 5519 5518 5518 5517 5517 5517 5517 5517 5517 5517 5517 5517 5517 5517 5518 5518 5518 5519 5519 5520 5520 5521 5522 5523 5523 5524 5525 5526 5527 5528 5529 5529 5530 5531 5532 5532 5533 5533 5534 5534 5534 5535 5535 5535 5534 5534 5534 5533 5533 5532 5531 5530 5529 5528 5527 5525
5554 5553 5551 5550 5548 5546 5545 5543 5541 5539 5538 5536 5535 5534 5532 5531 5530 5529 5527 5526 5525 5524 5524 5523 5522 5521 5520 5520 5519 5518 5518 5517 5516 5516 5515 5515 5515 5514 5514 5514 5514 5514 5514 5514 5515 5515 5515 5516 5516 5517 5517 5517 5518 5519 5520 5520 5521 5522 5523 5524 5524 5525 5526 5527 5528 5528 5529 5530 5531 5531 5531 5532 5532 5532 5532 5532 5531 5531 5531 5530 5530 5529 5528 5527 5526 5525 5524
5551 5550 5548 5546 5545 5543 5542 5540 5539 5537 5535 5534 5533 5531 5530 5529 5528 5527 5526 5524 5523 5523 5522 5521 5520 5520 5519 5518 5518 5517 5516 5516 5515 5514 5514 5513 5513 5512 5512 5512 5512 5512 5512 5512 5512 5512 5513 5513 5514 5514 5515 5515 5516 5516 5517 5517 5518 5519 5519 5520 5521 5522 5523 5523 5524 5525 5526 5527 5527 5528 5528 5529 5529 5529 5529 5529 5529 5529 5528 5528 5528 5527 5526 5525 5524 5523 5522
5548 5547 5545 5543 5542 5540 5539 5537 5536 5534 5533 5531 5530 5529 5528 5526 5525 5524 5523 5522 5521 5521 5520 5519 5518 5518 5517 5517 5516 5516 5515 5515 5514 5514 5513 5512 5512 5511 5511 5511 5510 5510 5510 5510 5510 5510 5510 5511 5511 5512 5512 5513 5513 5514 5514 5515 5515 5516 5517 5517 5518 5519 5520 5520 5521 5522 5523 5524 5524 5525 5525 5526 5526 5526 5526 5526 5526 5526 5526 5526 5525 5525 5524 5524 5523 5522 5521